Time,TemperatureF,DewpointF,PressureIn,WindDirection,WindDirectionDegrees,WindSpeedMPH,WindSpeedGustMPH,Humidity,HourlyPrecipIn,Conditions,Clouds,dailyrainin,SoftwareType,DateUTC
2013-09-16 00:03:00,86.1,64.8,29.98,NNE,23,0.0,0.0,49,0.00,,,0.00,WUHU216HW,2013-09-16 05:03:00,
2013-09-16 00:08:00,86.1,65.4,29.98,NNE,23,0.0,0.0,50,0.00,,,0.00,WUHU216HW,2013-09-16 05:08:00,
2013-09-16 00:13:00,86.1,64.8,29.98,NNE,23,0.0,0.0,49,0.00,,,0.00,WUHU216HW,2013-09-16 05:13:00,
2013-09-16 00:18:00,86.1,64.8,29.98,NNE,23,0.0,0.0,49,0.00,,,0.00,WUHU216HW,2013-09-16 05:18:00,
2013-09-16 00:23:00,86.1,64.8,29.98,NNE,23,0.0,0.0,49,0.00,,,0.00,WUHU216HW,2013-09-16 05:23:00,
2013-09-16 00:28:00,86.0,64.6,29.98,NNE,23,0.0,0.0,49,0.00,,,0.00,WUHU216HW,2013-09-16 05:28:00,
2013-09-16 00:33:00,85.8,64.5,29.98,NNE,23,0.0,0.0,49,0.00,,,0.00,WUHU216HW,2013-09-16 05:33:00,
2013-09-16 00:38:00,85.8,64.5,29.98,NNE,23,0.0,0.0,49,0.00,,,0.00,WUHU216HW,2013-09-16 05:38:00,
2013-09-16 00:43:00,85.8,64.5,29.99,NNE,23,0.0,0.0,49,0.00,,,0.00,WUHU216HW,2013-09-16 05:43:00,
2013-09-16 00:48:00,85.6,64.9,29.99,NNE,23,0.0,0.0,50,0.00,,,0.00,WUHU216HW,2013-09-16 05:48:00,
2013-09-16 00:53:00,85.4,64.8,29.99,NNE,23,0.0,0.0,50,0.00,,,0.00,WUHU216HW,2013-09-16 05:53:00,
2013-09-16 00:58:00,85.2,64.6,29.99,NNE,23,0.0,0.0,50,0.00,,,0.00,WUHU216HW,2013-09-16 05:58:00,
2013-09-16 01:03:00,85.1,65.0,29.99,NNE,23,0.0,0.0,51,0.00,,,0.00,WUHU216HW,2013-09-16 06:03:00,
2013-09-16 01:08:00,85.1,65.0,29.99,NNE,23,0.0,0.0,51,0.00,,,0.00,WUHU216HW,2013-09-16 06:08:00,
2013-09-16 01:13:00,84.9,64.3,29.99,NNE,23,0.0,0.0,50,0.00,,,0.00,WUHU216HW,2013-09-16 06:13:00,
2013-09-16 01:18:00,84.9,64.8,29.99,NNE,23,0.0,0.0,51,0.00,,,0.00,WUHU216HW,2013-09-16 06:18:00,
2013-09-16 01:23:00,84.9,64.8,29.99,NNE,23,0.0,0.0,51,0.00,,,0.00,WUHU216HW,2013-09-16 06:23:00,
2013-09-16 01:28:00,84.9,64.8,29.99,NNE,23,0.0,0.0,51,0.00,,,0.00,WUHU216HW,2013-09-16 06:28:00,
2013-09-16 01:33:00,84.9,64.8,29.99,NNE,23,0.0,0.0,51,0.00,,,0.00,WUHU216HW,2013-09-16 06:33:00,
2013-09-16 01:38:00,84.9,64.8,29.99,NNE,23,0.0,0.0,51,0.00,,,0.00,WUHU216HW,2013-09-16 06:38:00,
2013-09-16 01:43:00,84.9,65.3,29.99,NNE,23,0.0,0.0,52,0.00,,,0.00,WUHU216HW,2013-09-16 06:43:00,
2013-09-16 01:48:00,84.7,65.2,29.99,NNE,23,0.0,0.0,52,0.00,,,0.00,WUHU216HW,2013-09-16 06:48:00,
2013-09-16 01:53:00,84.7,65.7,29.99,NNE,23,0.0,0.0,53,0.00,,,0.00,WUHU216HW,2013-09-16 06:53:00,
2013-09-16 01:58:00,84.7,65.7,29.99,NNE,23,0.0,0.0,53,0.00,,,0.00,WUHU216HW,2013-09-16 06:58:00,
2013-09-16 02:03:00,84.5,65.5,29.99,NNE,23,0.0,0.0,53,0.00,,,0.00,WUHU216HW,2013-09-16 07:03:00,
2013-09-16 02:08:00,84.3,65.4,29.99,NNE,23,0.0,0.0,53,0.00,,,0.00,WUHU216HW,2013-09-16 07:08:00,
2013-09-16 02:13:00,84.3,65.9,29.99,NNE,23,0.0,0.0,54,0.00,,,0.00,WUHU216HW,2013-09-16 07:13:00,
2013-09-16 02:18:00,84.0,65.5,29.98,NNE,23,0.0,0.0,54,0.00,,,0.00,WUHU216HW,2013-09-16 07:18:00,
2013-09-16 02:23:00,84.0,65.5,29.99,NNE,23,0.0,0.0,54,0.00,,,0.00,WUHU216HW,2013-09-16 07:23:00,
2013-09-16 02:28:00,84.0,65.5,29.98,NNE,23,0.0,0.0,54,0.00,,,0.00,WUHU216HW,2013-09-16 07:28:00,
2013-09-16 02:33:00,84.0,65.5,29.98,NNE,23,0.0,0.0,54,0.00,,,0.00,WUHU216HW,2013-09-16 07:33:00,
2013-09-16 02:38:00,83.8,65.4,29.99,NNE,23,0.0,0.0,54,0.00,,,0.00,WUHU216HW,2013-09-16 07:38:00,
2013-09-16 02:43:00,83.8,65.9,29.98,NNE,23,0.0,0.0,55,0.00,,,0.00,WUHU216HW,2013-09-16 07:43:00,
2013-09-16 02:48:00,83.6,66.2,29.98,NNE,23,0.0,0.0,56,0.00,,,0.00,WUHU216HW,2013-09-16 07:48:00,
2013-09-16 02:53:00,83.4,65.5,29.98,NNE,23,0.0,0.0,55,0.00,,,0.00,WUHU216HW,2013-09-16 07:53:00,
2013-09-16 02:58:00,83.4,65.5,29.98,NNE,23,0.0,0.0,55,0.00,,,0.00,WUHU216HW,2013-09-16 07:58:00,
2013-09-16 03:03:00,83.4,65.5,29.98,NNE,23,0.0,0.0,55,0.00,,,0.00,WUHU216HW,2013-09-16 08:03:00,
2013-09-16 03:08:00,83.4,65.0,29.98,NNE,23,0.0,0.0,54,0.00,,,0.00,WUHU216HW,2013-09-16 08:08:00,
2013-09-16 03:13:00,83.3,65.3,29.98,NNE,23,0.0,0.0,55,0.00,,,0.00,WUHU216HW,2013-09-16 08:13:00,
2013-09-16 03:18:00,83.1,65.7,29.98,NNE,23,0.0,0.0,56,0.00,,,0.00,WUHU216HW,2013-09-16 08:18:00,
2013-09-16 03:23:00,83.1,65.2,29.98,NNE,23,0.0,0.0,55,0.00,,,0.00,WUHU216HW,2013-09-16 08:23:00,
2013-09-16 03:28:00,82.9,66.0,29.98,NNE,23,0.0,0.0,57,0.00,,,0.00,WUHU216HW,2013-09-16 08:28:00,
2013-09-16 03:33:00,82.9,65.5,29.98,NNE,23,0.0,0.0,56,0.00,,,0.00,WUHU216HW,2013-09-16 08:33:00,
2013-09-16 03:38:00,82.7,65.3,29.98,NNE,23,0.0,0.0,56,0.00,,,0.00,WUHU216HW,2013-09-16 08:38:00,
2013-09-16 03:43:00,82.7,65.3,29.98,NNE,23,0.0,0.0,56,0.00,,,0.00,WUHU216HW,2013-09-16 08:43:00,
2013-09-16 03:48:00,82.5,65.1,29.98,NNE,23,0.0,0.0,56,0.00,,,0.00,WUHU216HW,2013-09-16 08:48:00,
2013-09-16 03:53:00,82.5,65.1,29.99,NNE,23,0.0,0.0,56,0.00,,,0.00,WUHU216HW,2013-09-16 08:53:00,
2013-09-16 03:58:00,82.5,66.2,29.98,NNE,23,0.0,0.0,58,0.00,,,0.00,WUHU216HW,2013-09-16 08:58:00,
2013-09-16 04:03:00,82.5,66.0,29.98,NNE,23,0.0,0.0,58,0.00,,,0.00,WUHU216HW,2013-09-16 09:03:00,
2013-09-16 04:08:00,82.4,67.1,29.98,NNE,23,0.0,0.0,60,0.00,,,0.00,WUHU216HW,2013-09-16 09:08:00,
2013-09-16 04:13:00,82.2,66.9,29.98,NNE,23,0.0,0.0,60,0.00,,,0.00,WUHU216HW,2013-09-16 09:13:00,
2013-09-16 04:18:00,82.2,67.3,29.98,NNE,23,0.0,0.0,61,0.00,,,0.00,WUHU216HW,2013-09-16 09:18:00,
2013-09-16 04:23:00,82.2,66.4,29.98,NNE,23,0.0,0.0,59,0.00,,,0.00,WUHU216HW,2013-09-16 09:23:00,
2013-09-16 04:28:00,82.0,66.7,29.98,NNE,23,0.0,0.0,60,0.00,,,0.00,WUHU216HW,2013-09-16 09:28:00,
2013-09-16 04:33:00,82.0,67.6,29.98,NNE,23,0.0,0.0,62,0.00,,,0.00,WUHU216HW,2013-09-16 09:33:00,
2013-09-16 04:38:00,82.0,67.6,29.98,NNE,23,0.0,0.0,62,0.00,,,0.00,WUHU216HW,2013-09-16 09:38:00,
2013-09-16 04:43:00,81.8,67.0,29.99,NNE,23,0.0,0.0,61,0.00,,,0.00,WUHU216HW,2013-09-16 09:43:00,
2013-09-16 04:48:00,81.6,66.4,29.99,NNE,23,0.0,0.0,60,0.00,,,0.00,WUHU216HW,2013-09-16 09:48:00,
2013-09-16 04:53:00,81.6,66.9,29.99,NNE,23,0.0,0.0,61,0.00,,,0.00,WUHU216HW,2013-09-16 09:53:00,
2013-09-16 04:58:00,81.3,66.5,29.99,NNE,23,0.0,0.0,61,0.00,,,0.00,WUHU216HW,2013-09-16 09:58:00,
2013-09-16 05:03:00,81.3,66.5,29.99,NNE,23,0.0,0.0,61,0.00,,,0.00,WUHU216HW,2013-09-16 10:03:00,
2013-09-16 05:08:00,81.3,66.5,29.99,NNE,23,0.0,0.0,61,0.00,,,0.00,WUHU216HW,2013-09-16 10:08:00,
2013-09-16 05:13:00,81.3,66.5,29.99,NNE,23,0.0,0.0,61,0.00,,,0.00,WUHU216HW,2013-09-16 10:13:00,
2013-09-16 05:18:00,81.3,66.1,29.99,NNE,23,0.0,0.0,60,0.00,,,0.00,WUHU216HW,2013-09-16 10:18:00,
2013-09-16 05:23:00,81.3,66.5,30.00,NNE,23,0.0,0.0,61,0.00,,,0.00,WUHU216HW,2013-09-16 10:23:00,
2013-09-16 05:28:00,81.5,66.2,30.00,NNE,23,0.0,0.0,60,0.00,,,0.00,WUHU216HW,2013-09-16 10:28:00,
2013-09-16 05:33:00,81.5,65.7,30.00,NNE,23,0.0,0.0,59,0.00,,,0.00,WUHU216HW,2013-09-16 10:33:00,
2013-09-16 05:38:00,81.5,65.7,30.00,NNE,23,0.0,0.0,59,0.00,,,0.00,WUHU216HW,2013-09-16 10:38:00,
2013-09-16 05:43:00,81.6,66.4,29.99,NNE,23,0.0,0.0,60,0.00,,,0.00,WUHU216HW,2013-09-16 10:43:00,
2013-09-16 05:48:00,81.5,66.2,29.99,NNE,23,0.0,0.0,60,0.00,,,0.00,WUHU216HW,2013-09-16 10:48:00,
2013-09-16 05:53:00,81.5,65.7,29.99,NNE,23,0.0,0.0,59,0.00,,,0.00,WUHU216HW,2013-09-16 10:53:00,
2013-09-16 05:58:00,81.5,65.2,30.00,NNE,23,0.0,0.0,58,0.00,,,0.00,WUHU216HW,2013-09-16 10:58:00,
2013-09-16 06:03:00,81.5,66.2,30.00,NNE,23,0.0,0.0,60,0.00,,,0.00,WUHU216HW,2013-09-16 11:03:00,
2013-09-16 06:08:00,81.5,66.2,30.00,NNE,23,0.0,0.0,60,0.00,,,0.00,WUHU216HW,2013-09-16 11:08:00,
2013-09-16 06:13:00,81.5,66.2,30.00,NNE,23,0.0,0.0,60,0.00,,,0.00,WUHU216HW,2013-09-16 11:13:00,
2013-09-16 06:18:00,81.3,66.5,30.00,NNE,23,0.0,0.0,61,0.00,,,0.00,WUHU216HW,2013-09-16 11:18:00,
2013-09-16 06:23:00,81.3,66.5,30.00,NNE,23,0.0,0.0,61,0.00,,,0.00,WUHU216HW,2013-09-16 11:23:00,
2013-09-16 06:28:00,81.1,66.8,30.01,NNE,23,0.0,0.0,62,0.00,,,0.00,WUHU216HW,2013-09-16 11:28:00,
2013-09-16 06:33:00,81.1,67.3,30.01,NNE,23,0.0,0.0,63,0.00,,,0.00,WUHU216HW,2013-09-16 11:33:00,
2013-09-16 06:38:00,80.9,67.1,30.01,NNE,23,0.0,0.0,63,0.00,,,0.00,WUHU216HW,2013-09-16 11:38:00,
2013-09-16 06:43:00,80.7,66.9,30.01,NNE,23,0.0,0.0,63,0.00,,,0.00,WUHU216HW,2013-09-16 11:43:00,
2013-09-16 06:48:00,80.7,66.9,30.02,NNE,23,0.0,0.0,63,0.00,,,0.00,WUHU216HW,2013-09-16 11:48:00,
2013-09-16 06:53:00,80.7,66.5,30.02,NNE,23,0.0,0.0,62,0.00,,,0.00,WUHU216HW,2013-09-16 11:53:00,
2013-09-16 06:58:00,80.7,66.9,30.01,NNE,23,0.0,0.0,63,0.00,,,0.00,WUHU216HW,2013-09-16 11:58:00,
2013-09-16 07:03:00,80.7,66.5,30.01,NNE,23,0.0,0.0,62,0.00,,,0.00,WUHU216HW,2013-09-16 12:03:00,
2013-09-16 07:08:00,80.6,66.8,30.02,NNE,23,0.0,0.0,63,0.00,,,0.00,WUHU216HW,2013-09-16 12:08:00,
2013-09-16 07:13:00,80.7,66.9,30.02,NNE,23,0.0,0.0,63,0.00,,,0.00,WUHU216HW,2013-09-16 12:13:00,
2013-09-16 07:18:00,80.6,66.8,30.02,NNE,23,0.0,0.0,63,0.00,,,0.00,WUHU216HW,2013-09-16 12:18:00,
2013-09-16 07:23:00,80.7,66.9,30.02,NNE,23,0.0,0.0,63,0.00,,,0.00,WUHU216HW,2013-09-16 12:23:00,
2013-09-16 07:28:00,80.7,66.9,30.02,NNE,23,0.0,0.0,63,0.00,,,0.00,WUHU216HW,2013-09-16 12:28:00,
2013-09-16 07:33:00,80.7,67.4,30.02,NNE,23,0.0,0.0,64,0.00,,,0.00,WUHU216HW,2013-09-16 12:33:00,
2013-09-16 07:38:00,80.7,67.4,30.03,NNE,23,0.0,0.0,64,0.00,,,0.00,WUHU216HW,2013-09-16 12:38:00,
2013-09-16 07:43:00,80.7,67.4,30.03,NNE,23,0.0,0.0,64,0.00,,,0.00,WUHU216HW,2013-09-16 12:43:00,
2013-09-16 07:48:00,80.7,67.8,30.03,NNE,23,0.0,0.0,65,0.00,,,0.00,WUHU216HW,2013-09-16 12:48:00,
2013-09-16 07:53:00,80.7,67.8,30.04,NNE,23,0.0,0.0,65,0.00,,,0.00,WUHU216HW,2013-09-16 12:53:00,
2013-09-16 07:58:00,80.9,68.0,30.04,NNE,23,0.0,0.0,65,0.00,,,0.00,WUHU216HW,2013-09-16 12:58:00,
2013-09-16 08:03:00,80.9,68.0,30.04,NNE,23,0.0,0.0,65,0.00,,,0.00,WUHU216HW,2013-09-16 13:03:00,
2013-09-16 08:08:00,80.9,68.5,30.04,NNE,23,0.0,0.0,66,0.00,,,0.00,WUHU216HW,2013-09-16 13:08:00,
2013-09-16 08:13:00,81.1,68.2,30.04,NNE,23,0.0,0.0,65,0.00,,,0.00,WUHU216HW,2013-09-16 13:13:00,
2013-09-16 08:18:00,81.1,68.2,30.04,NNE,23,0.0,0.0,65,0.00,,,0.00,WUHU216HW,2013-09-16 13:18:00,
2013-09-16 08:23:00,81.3,68.3,30.04,NNE,23,0.0,0.0,65,0.00,,,0.00,WUHU216HW,2013-09-16 13:23:00,
2013-09-16 08:28:00,81.5,68.5,30.04,NNE,23,0.0,0.0,65,0.00,,,0.00,WUHU216HW,2013-09-16 13:28:00,
2013-09-16 08:33:00,81.6,68.7,30.05,NNE,23,0.0,0.0,65,0.00,,,0.00,WUHU216HW,2013-09-16 13:33:00,
2013-09-16 08:38:00,81.6,68.7,30.05,NNE,23,0.0,0.0,65,0.00,,,0.00,WUHU216HW,2013-09-16 13:38:00,
2013-09-16 08:43:00,82.0,69.0,30.05,NNE,23,0.0,0.0,65,0.00,,,0.00,WUHU216HW,2013-09-16 13:43:00,
2013-09-16 08:48:00,82.2,69.1,30.04,NNE,23,0.0,0.0,65,0.00,,,0.00,WUHU216HW,2013-09-16 13:48:00,
2013-09-16 08:53:00,82.2,69.1,30.05,NNE,23,0.0,0.0,65,0.00,,,0.00,WUHU216HW,2013-09-16 13:53:00,
2013-09-16 08:58:00,82.5,69.5,30.05,NNE,23,0.0,0.0,65,0.00,,,0.00,WUHU216HW,2013-09-16 13:58:00,
2013-09-16 09:03:00,82.7,69.7,30.04,NNE,23,0.0,0.0,65,0.00,,,0.00,WUHU216HW,2013-09-16 14:03:00,
2013-09-16 09:08:00,82.9,69.8,30.05,NNE,23,0.0,0.0,65,0.00,,,0.00,WUHU216HW,2013-09-16 14:08:00,
2013-09-16 09:13:00,83.1,70.0,30.05,NNE,23,0.0,0.0,65,0.00,,,0.00,WUHU216HW,2013-09-16 14:13:00,
2013-09-16 09:18:00,83.1,70.5,30.05,NNE,23,0.0,0.0,66,0.00,,,0.00,WUHU216HW,2013-09-16 14:18:00,
2013-09-16 09:23:00,83.4,70.4,30.05,NNE,23,0.0,0.0,65,0.00,,,0.00,WUHU216HW,2013-09-16 14:23:00,
2013-09-16 09:28:00,83.8,70.7,30.05,NNE,23,0.0,0.0,65,0.00,,,0.00,WUHU216HW,2013-09-16 14:28:00,
2013-09-16 09:33:00,83.8,70.7,30.05,NNE,23,0.0,0.0,65,0.00,,,0.00,WUHU216HW,2013-09-16 14:33:00,
2013-09-16 09:38:00,83.8,70.7,30.05,NNE,23,0.0,0.0,65,0.00,,,0.00,WUHU216HW,2013-09-16 14:38:00,
2013-09-16 09:43:00,84.3,71.3,30.05,NNE,23,0.0,0.0,65,0.00,,,0.00,WUHU216HW,2013-09-16 14:43:00,
2013-09-16 09:48:00,84.3,71.3,30.05,NNE,23,0.0,0.0,65,0.00,,,0.00,WUHU216HW,2013-09-16 14:48:00,
2013-09-16 09:53:00,84.5,71.0,30.05,NNE,23,0.0,0.0,64,0.00,,,0.00,WUHU216HW,2013-09-16 14:53:00,
2013-09-16 09:58:00,84.9,71.3,30.05,NNE,23,0.8,0.8,64,0.00,,,0.00,WUHU216HW,2013-09-16 14:58:00,
2013-09-16 10:03:00,85.1,71.0,30.05,NNE,23,0.0,0.8,63,0.00,,,0.00,WUHU216HW,2013-09-16 15:03:00,
2013-09-16 10:08:00,85.2,71.2,30.05,NNE,23,0.0,0.8,63,0.00,,,0.00,WUHU216HW,2013-09-16 15:08:00,
2013-09-16 10:13:00,85.8,71.2,30.06,NNE,23,0.0,0.0,62,0.00,,,0.00,WUHU216HW,2013-09-16 15:13:00,
2013-09-16 10:18:00,85.8,71.2,30.06,NNE,23,0.0,0.0,62,0.00,,,0.00,WUHU216HW,2013-09-16 15:18:00,
2013-09-16 10:23:00,85.8,71.2,30.05,NNE,23,0.0,0.0,62,0.00,,,0.00,WUHU216HW,2013-09-16 15:23:00,
2013-09-16 10:28:00,86.1,71.6,30.05,NNE,23,0.0,0.0,62,0.00,,,0.00,WUHU216HW,2013-09-16 15:28:00,
2013-09-16 10:33:00,86.3,71.7,30.06,NNE,23,0.0,0.0,62,0.00,,,0.00,WUHU216HW,2013-09-16 15:33:00,
2013-09-16 10:38:00,86.5,71.9,30.05,NNE,23,0.0,0.0,62,0.00,,,0.00,WUHU216HW,2013-09-16 15:38:00,
2013-09-16 10:43:00,86.9,71.4,30.06,NNE,23,0.0,0.0,60,0.00,,,0.00,WUHU216HW,2013-09-16 15:43:00,
2013-09-16 10:48:00,87.0,72.0,30.06,NNE,23,0.0,0.0,61,0.00,,,0.00,WUHU216HW,2013-09-16 15:48:00,
2013-09-16 10:53:00,87.6,71.4,30.06,NNE,23,0.0,0.0,59,0.00,,,0.00,WUHU216HW,2013-09-16 15:53:00,
2013-09-16 10:58:00,87.8,70.7,30.06,NNE,23,0.0,0.0,57,0.00,,,0.00,WUHU216HW,2013-09-16 15:58:00,
2013-09-16 11:03:00,88.3,71.7,30.06,NNE,23,0.0,0.0,58,0.00,,,0.00,WUHU216HW,2013-09-16 16:03:00,
2013-09-16 11:08:00,88.5,70.8,30.06,NNE,23,0.0,0.0,56,0.00,,,0.00,WUHU216HW,2013-09-16 16:08:00,
2013-09-16 11:13:00,88.7,70.9,30.06,NNE,23,0.0,0.0,56,0.00,,,0.00,WUHU216HW,2013-09-16 16:13:00,
2013-09-16 11:18:00,89.2,70.9,30.06,NNE,23,0.0,0.0,55,0.00,,,0.00,WUHU216HW,2013-09-16 16:18:00,
2013-09-16 11:23:00,89.4,71.0,30.06,NNE,23,0.0,0.0,55,0.00,,,0.00,WUHU216HW,2013-09-16 16:23:00,
2013-09-16 11:28:00,90.1,70.6,30.06,NNE,23,0.0,0.0,53,0.00,,,0.00,WUHU216HW,2013-09-16 16:28:00,
2013-09-16 11:33:00,90.3,70.8,30.06,NNE,23,0.0,1.1,53,0.00,,,0.00,WUHU216HW,2013-09-16 16:33:00,
2013-09-16 11:38:00,90.6,71.1,30.06,NNE,23,0.0,1.1,53,0.00,,,0.00,WUHU216HW,2013-09-16 16:38:00,
2013-09-16 11:43:00,91.0,70.9,30.06,NNE,23,1.3,1.3,52,0.00,,,0.00,WUHU216HW,2013-09-16 16:43:00,
2013-09-16 11:48:00,91.4,70.7,30.06,NNE,23,0.0,1.3,51,0.00,,,0.00,WUHU216HW,2013-09-16 16:48:00,
2013-09-16 11:53:00,91.2,69.9,30.05,NNE,23,0.0,1.3,50,0.00,,,0.00,WUHU216HW,2013-09-16 16:53:00,
2013-09-16 11:58:00,91.2,70.5,30.05,NNE,23,0.0,0.0,51,0.00,,,0.00,WUHU216HW,2013-09-16 16:58:00,
2013-09-16 12:03:00,91.4,70.7,30.06,NNE,23,0.0,0.0,51,0.00,,,0.00,WUHU216HW,2013-09-16 17:03:00,
2013-09-16 12:08:00,91.2,70.5,30.05,NNE,23,0.0,0.0,50,0.00,,,0.00,WUHU216HW,2013-09-16 17:08:00,
2013-09-16 12:13:00,91.5,70.3,30.05,NNE,23,0.0,0.0,50,0.00,,,0.00,WUHU216HW,2013-09-16 17:13:00,
2013-09-16 12:18:00,91.4,70.1,30.05,NNE,23,0.0,1.3,50,0.00,,,0.00,WUHU216HW,2013-09-16 17:18:00,
2013-09-16 12:23:00,92.8,69.5,30.05,NNE,23,0.0,1.3,47,0.00,,,0.00,WUHU216HW,2013-09-16 17:23:00,
2013-09-16 12:28:00,92.4,69.1,30.05,NNE,23,0.0,0.0,47,0.00,,,0.00,WUHU216HW,2013-09-16 17:28:00,
2013-09-16 12:33:00,91.9,68.7,30.04,NNE,23,0.0,0.0,47,0.00,,,0.00,WUHU216HW,2013-09-16 17:33:00,
2013-09-16 12:38:00,91.7,69.1,30.05,NNE,23,0.0,0.0,48,0.00,,,0.00,WUHU216HW,2013-09-16 17:38:00,
2013-09-16 12:43:00,92.6,69.9,30.04,NNE,23,0.0,0.0,48,0.00,,,0.00,WUHU216HW,2013-09-16 17:43:00,
2013-09-16 12:48:00,93.7,69.6,30.04,NNE,23,0.0,0.0,46,0.00,,,0.00,WUHU216HW,2013-09-16 17:48:00,
2013-09-16 12:53:00,94.8,69.4,30.04,NNE,23,0.0,2.2,44,0.00,,,0.00,WUHU216HW,2013-09-16 17:53:00,
2013-09-16 12:58:00,95.0,68.9,30.03,NNE,23,0.0,2.2,43,0.00,,,0.00,WUHU216HW,2013-09-16 17:58:00,
2013-09-16 13:03:00,94.8,68.7,30.03,NNE,23,0.0,0.0,43,0.00,,,0.00,WUHU216HW,2013-09-16 18:03:00,
2013-09-16 13:08:00,93.9,67.9,30.03,NNE,23,0.0,0.0,44,0.00,,,0.00,WUHU216HW,2013-09-16 18:08:00,
2013-09-16 13:13:00,94.1,68.7,30.03,NNE,23,0.0,0.0,44,0.00,,,0.00,WUHU216HW,2013-09-16 18:13:00,
2013-09-16 13:18:00,93.9,68.5,30.03,NNE,23,0.0,3.5,44,0.00,,,0.00,WUHU216HW,2013-09-16 18:18:00,
2013-09-16 13:23:00,93.3,68.0,30.02,NNE,23,0.0,3.5,44,0.00,,,0.00,WUHU216HW,2013-09-16 18:23:00,
2013-09-16 13:28:00,93.0,68.3,30.02,NNE,23,0.0,0.0,45,0.00,,,0.00,WUHU216HW,2013-09-16 18:28:00,
2013-09-16 13:33:00,92.4,67.8,30.02,NNE,23,0.0,0.0,45,0.00,,,0.00,WUHU216HW,2013-09-16 18:33:00,
2013-09-16 13:38:00,92.1,68.2,30.02,NNE,23,0.0,0.0,46,0.00,,,0.00,WUHU216HW,2013-09-16 18:38:00,
2013-09-16 13:43:00,92.3,68.3,30.01,NNE,23,0.0,0.0,46,0.00,,,0.00,WUHU216HW,2013-09-16 18:43:00,
2013-09-16 13:48:00,92.4,67.8,30.00,NNE,23,0.0,0.0,45,0.00,,,0.00,WUHU216HW,2013-09-16 18:48:00,
2013-09-16 13:53:00,93.0,67.0,30.01,NNE,23,0.0,0.0,43,0.00,,,0.00,WUHU216HW,2013-09-16 18:53:00,
2013-09-16 13:58:00,93.5,66.9,30.00,NNE,23,0.0,0.0,42,0.00,,,0.00,WUHU216HW,2013-09-16 18:58:00,
2013-09-16 14:03:00,93.0,67.7,30.00,NNE,23,0.0,0.0,44,0.00,,,0.00,WUHU216HW,2013-09-16 19:03:00,
2013-09-16 14:08:00,92.8,66.9,30.00,NNE,23,4.0,4.0,43,0.00,,,0.00,WUHU216HW,2013-09-16 19:08:00,
2013-09-16 14:13:00,92.6,66.1,30.00,NNE,23,0.0,4.0,42,0.00,,,0.00,WUHU216HW,2013-09-16 19:13:00,
2013-09-16 14:18:00,92.6,66.1,29.99,NNE,23,0.0,4.0,42,0.00,,,0.00,WUHU216HW,2013-09-16 19:18:00,
2013-09-16 14:23:00,93.0,66.4,30.00,NNE,23,0.0,0.0,42,0.00,,,0.00,WUHU216HW,2013-09-16 19:23:00,
2013-09-16 14:27:00,93.0,66.4,30.00,NNE,23,0.0,0.0,42,0.00,,,0.00,WUHU216HW,2013-09-16 19:27:00,
2013-09-16 14:32:00,93.0,65.7,29.99,NNE,23,0.0,0.0,41,0.00,,,0.00,WUHU216HW,2013-09-16 19:32:00,
2013-09-16 14:38:00,93.0,65.7,29.99,NNE,23,0.0,0.0,41,0.00,,,0.00,WUHU216HW,2013-09-16 19:38:00,
2013-09-16 14:42:00,93.0,65.1,29.98,NNE,23,0.0,0.0,40,0.00,,,0.00,WUHU216HW,2013-09-16 19:42:00,
2013-09-16 14:47:00,92.8,65.6,29.99,NNE,23,0.0,0.0,41,0.00,,,0.00,WUHU216HW,2013-09-16 19:47:00,
2013-09-16 14:52:00,92.3,65.1,29.99,NNE,23,1.3,1.3,41,0.00,,,0.00,WUHU216HW,2013-09-16 19:52:00,
2013-09-16 14:58:00,92.3,65.1,29.97,NNE,23,0.0,1.3,41,0.00,,,0.00,WUHU216HW,2013-09-16 19:58:00,
2013-09-16 15:03:00,92.3,64.4,29.98,NNE,23,0.0,1.3,40,0.00,,,0.00,WUHU216HW,2013-09-16 20:03:00,
2013-09-16 15:08:00,92.1,63.5,29.97,NNE,23,0.0,0.0,39,0.00,,,0.00,WUHU216HW,2013-09-16 20:08:00,
2013-09-16 15:13:00,92.4,64.6,29.97,NNE,23,0.0,0.0,40,0.00,,,0.00,WUHU216HW,2013-09-16 20:13:00,
2013-09-16 15:18:00,92.4,64.6,29.97,NNE,23,0.0,0.0,40,0.00,,,0.00,WUHU216HW,2013-09-16 20:18:00,
2013-09-16 15:23:00,92.8,64.1,29.97,NNE,23,0.0,0.0,39,0.00,,,0.00,WUHU216HW,2013-09-16 20:23:00,
2013-09-16 15:28:00,93.3,63.8,29.96,NNE,23,0.0,0.0,38,0.00,,,0.00,WUHU216HW,2013-09-16 20:28:00,
2013-09-16 15:33:00,93.7,63.3,29.96,NNE,23,0.0,6.4,37,0.00,,,0.00,WUHU216HW,2013-09-16 20:33:00,
2013-09-16 15:38:00,93.9,63.5,29.95,NNE,23,4.9,6.4,37,0.00,,,0.00,WUHU216HW,2013-09-16 20:38:00,
2013-09-16 15:43:00,94.1,63.6,29.96,NNE,23,0.0,4.9,37,0.00,,,0.00,WUHU216HW,2013-09-16 20:43:00,
2013-09-16 15:48:00,94.1,62.0,29.96,NNE,23,0.0,4.9,35,0.00,,,0.00,WUHU216HW,2013-09-16 20:48:00,
2013-09-16 15:53:00,94.2,62.2,29.95,NNE,23,1.1,1.1,35,0.00,,,0.00,WUHU216HW,2013-09-16 20:53:00,
2013-09-16 15:58:00,94.1,62.0,29.95,NNE,23,0.0,1.1,35,0.00,,,0.00,WUHU216HW,2013-09-16 20:58:00,
2013-09-16 16:03:00,94.2,62.2,29.95,NNE,23,0.0,1.1,35,0.00,,,0.00,WUHU216HW,2013-09-16 21:03:00,
2013-09-16 16:08:00,94.1,62.8,29.95,NNE,23,0.0,0.0,36,0.00,,,0.00,WUHU216HW,2013-09-16 21:08:00,
2013-09-16 16:13:00,94.2,63.0,29.94,NNE,23,0.0,0.0,36,0.00,,,0.00,WUHU216HW,2013-09-16 21:13:00,
2013-09-16 16:18:00,94.2,63.8,29.94,NNE,23,0.0,0.0,37,0.00,,,0.00,WUHU216HW,2013-09-16 21:18:00,
2013-09-16 16:23:00,94.1,62.0,29.94,NNE,23,0.0,2.4,35,0.00,,,0.00,WUHU216HW,2013-09-16 21:23:00,
2013-09-16 16:28:00,94.2,63.8,29.94,NNE,23,0.0,2.4,37,0.00,,,0.00,WUHU216HW,2013-09-16 21:28:00,
2013-09-16 16:33:00,94.2,62.2,29.94,NNE,23,6.7,6.7,35,0.00,,,0.00,WUHU216HW,2013-09-16 21:33:00,
2013-09-16 16:38:00,94.2,62.2,29.94,NNE,23,0.0,6.7,35,0.00,,,0.00,WUHU216HW,2013-09-16 21:38:00,
2013-09-16 16:43:00,94.6,62.5,29.94,NNE,23,0.0,1.5,35,0.00,,,0.00,WUHU216HW,2013-09-16 21:43:00,
2013-09-16 16:48:00,94.6,61.7,29.93,NNE,23,0.0,6.9,34,0.00,,,0.00,WUHU216HW,2013-09-16 21:48:00,
2013-09-16 16:53:00,94.2,62.2,29.94,NNE,23,0.0,6.9,35,0.00,,,0.00,WUHU216HW,2013-09-16 21:53:00,
2013-09-16 16:58:00,94.4,61.5,29.93,NNE,23,0.0,0.0,34,0.00,,,0.00,WUHU216HW,2013-09-16 21:58:00,
2013-09-16 17:03:00,94.2,61.4,29.93,NNE,23,0.0,5.8,34,0.00,,,0.00,WUHU216HW,2013-09-16 22:03:00,
2013-09-16 17:08:00,94.6,61.7,29.93,NNE,23,0.0,5.8,34,0.00,,,0.00,WUHU216HW,2013-09-16 22:08:00,
2013-09-16 17:13:00,94.8,61.8,29.93,NNE,23,0.0,0.0,34,0.00,,,0.00,WUHU216HW,2013-09-16 22:13:00,
2013-09-16 17:18:00,94.6,60.9,29.93,NNE,23,4.0,6.0,33,0.00,,,0.00,WUHU216HW,2013-09-16 22:18:00,
2013-09-16 17:23:00,94.6,60.9,29.93,NNE,23,0.0,60.8,33,0.00,,,0.00,WUHU216HW,2013-09-16 22:23:00,
2013-09-16 17:28:00,94.6,60.9,29.93,NNE,23,0.0,60.8,33,0.00,,,0.00,WUHU216HW,2013-09-16 22:28:00,
2013-09-16 17:33:00,94.4,60.7,29.93,NNE,23,0.0,2.2,33,0.00,,,0.00,WUHU216HW,2013-09-16 22:33:00,
2013-09-16 17:38:00,94.2,61.4,29.93,NNE,23,0.0,0.0,34,0.00,,,0.00,WUHU216HW,2013-09-16 22:38:00,
2013-09-16 17:43:00,94.1,61.2,29.92,NNE,23,0.0,0.0,34,0.00,,,0.00,WUHU216HW,2013-09-16 22:43:00,
2013-09-16 17:48:00,94.1,61.2,29.93,NNE,23,1.1,1.1,34,0.00,,,0.00,WUHU216HW,2013-09-16 22:48:00,
2013-09-16 17:53:00,93.7,60.9,29.92,NNE,23,0.0,1.1,34,0.00,,,0.00,WUHU216HW,2013-09-16 22:53:00,
2013-09-16 17:58:00,93.7,60.9,29.93,NNE,23,0.0,0.0,34,0.00,,,0.00,WUHU216HW,2013-09-16 22:58:00,
2013-09-16 18:03:00,93.7,60.9,29.93,NNE,23,4.0,4.0,34,0.00,,,0.00,WUHU216HW,2013-09-16 23:03:00,
2013-09-16 18:08:00,93.7,60.9,29.93,NNE,23,0.0,4.0,34,0.00,,,0.00,WUHU216HW,2013-09-16 23:08:00,
2013-09-16 18:13:00,93.7,60.9,29.93,NNE,23,0.0,2.6,34,0.00,,,0.00,WUHU216HW,2013-09-16 23:13:00,
2013-09-16 18:18:00,93.7,60.9,29.93,NNE,23,0.0,0.0,34,0.00,,,0.00,WUHU216HW,2013-09-16 23:18:00,
2013-09-16 18:23:00,93.7,60.1,29.93,NNE,23,0.0,4.0,33,0.00,,,0.00,WUHU216HW,2013-09-16 23:23:00,
2013-09-16 18:28:00,93.3,59.7,29.94,NNE,23,0.0,4.0,33,0.00,,,0.00,WUHU216HW,2013-09-16 23:28:00,
2013-09-16 18:33:00,93.0,59.4,29.93,NNE,23,5.3,5.3,33,0.00,,,0.00,WUHU216HW,2013-09-16 23:33:00,
2013-09-16 18:38:00,92.8,60.1,29.93,NNE,23,0.0,6.0,34,0.00,,,0.00,WUHU216HW,2013-09-16 23:38:00,
2013-09-16 18:43:00,93.0,60.2,29.93,NNE,23,0.0,6.0,34,0.00,,,0.00,WUHU216HW,2013-09-16 23:43:00,
2013-09-16 18:48:00,92.8,60.1,29.93,NNE,23,0.0,0.0,34,0.00,,,0.00,WUHU216HW,2013-09-16 23:48:00,
2013-09-16 18:53:00,92.6,59.9,29.93,NNE,23,0.0,0.0,34,0.00,,,0.00,WUHU216HW,2013-09-16 23:53:00,
2013-09-16 18:58:00,92.4,59.8,29.93,NNE,23,0.0,0.0,34,0.00,,,0.00,WUHU216HW,2013-09-16 23:58:00,
2013-09-16 19:03:00,92.4,59.8,29.94,NNE,23,0.0,0.0,34,0.00,,,0.00,WUHU216HW,2013-09-17 00:03:00,
2013-09-16 19:08:00,92.3,60.4,29.93,NNE,23,0.0,0.0,35,0.00,,,0.00,WUHU216HW,2013-09-17 00:08:00,
2013-09-16 19:13:00,92.1,60.3,29.94,NNE,23,0.0,0.0,35,0.00,,,0.00,WUHU216HW,2013-09-17 00:13:00,
2013-09-16 19:18:00,91.9,60.1,29.94,NNE,23,0.0,0.0,35,0.00,,,0.00,WUHU216HW,2013-09-17 00:18:00,
2013-09-16 19:23:00,91.5,60.6,29.94,NNE,23,0.0,0.0,36,0.00,,,0.00,WUHU216HW,2013-09-17 00:23:00,
2013-09-16 19:28:00,91.5,60.6,29.94,NNE,23,0.0,0.0,36,0.00,,,0.00,WUHU216HW,2013-09-17 00:28:00,
2013-09-16 19:33:00,91.5,61.4,29.94,NNE,23,0.0,0.0,37,0.00,,,0.00,WUHU216HW,2013-09-17 00:33:00,
2013-09-16 19:38:00,91.4,62.0,29.94,NNE,23,0.0,0.0,38,0.00,,,0.00,WUHU216HW,2013-09-17 00:38:00,
2013-09-16 19:43:00,91.2,61.9,29.94,NNE,23,0.0,0.0,38,0.00,,,0.00,WUHU216HW,2013-09-17 00:43:00,
2013-09-16 19:48:00,91.0,63.3,29.94,NNE,23,0.0,0.0,39,0.00,,,0.00,WUHU216HW,2013-09-17 00:48:00,
2013-09-16 19:53:00,90.6,63.0,29.95,NNE,23,0.0,0.0,40,0.00,,,0.00,WUHU216HW,2013-09-17 00:53:00,
2013-09-16 19:58:00,90.6,63.0,29.95,NNE,23,0.0,0.0,40,0.00,,,0.00,WUHU216HW,2013-09-17 00:58:00,
2013-09-16 20:03:00,90.3,63.5,29.95,NNE,23,0.0,0.0,42,0.00,,,0.00,WUHU216HW,2013-09-17 01:03:00,
2013-09-16 20:08:00,90.3,64.0,29.95,NNE,23,0.0,0.0,42,0.00,,,0.00,WUHU216HW,2013-09-17 01:08:00,
2013-09-16 20:13:00,90.1,63.8,29.95,NNE,23,0.0,0.0,42,0.00,,,0.00,WUHU216HW,2013-09-17 01:13:00,
2013-09-16 20:18:00,89.7,63.5,29.96,NNE,23,0.0,0.0,42,0.00,,,0.00,WUHU216HW,2013-09-17 01:18:00,
2013-09-16 20:23:00,89.7,63.5,29.96,NNE,23,0.0,0.0,42,0.00,,,0.00,WUHU216HW,2013-09-17 01:23:00,
2013-09-16 20:28:00,89.7,63.5,29.96,NNE,23,0.0,0.0,42,0.00,,,0.00,WUHU216HW,2013-09-17 01:28:00,
2013-09-16 20:33:00,89.7,64.0,29.96,NNE,23,0.0,0.0,42,0.00,,,0.00,WUHU216HW,2013-09-17 01:33:00,
2013-09-16 20:38:00,89.4,63.8,29.97,NNE,23,0.0,0.0,43,0.00,,,0.00,WUHU216HW,2013-09-17 01:38:00,
2013-09-16 20:43:00,89.4,64.4,29.96,NNE,23,0.0,0.0,44,0.00,,,0.00,WUHU216HW,2013-09-17 01:43:00,
2013-09-16 20:48:00,89.4,64.4,29.97,NNE,23,0.0,0.0,44,0.00,,,0.00,WUHU216HW,2013-09-17 01:48:00,
2013-09-16 20:53:00,89.2,64.3,29.97,NNE,23,0.0,0.0,44,0.00,,,0.00,WUHU216HW,2013-09-17 01:53:00,
2013-09-16 20:58:00,89.2,64.3,29.97,NNE,23,0.0,0.0,44,0.00,,,0.00,WUHU216HW,2013-09-17 01:58:00,
2013-09-16 21:03:00,89.2,64.3,29.97,NNE,23,0.0,0.0,44,0.00,,,0.00,WUHU216HW,2013-09-17 02:03:00,
2013-09-16 21:08:00,89.2,64.3,29.98,NNE,23,0.0,0.0,44,0.00,,,0.00,WUHU216HW,2013-09-17 02:08:00,
2013-09-16 21:13:00,89.2,63.6,29.98,NNE,23,0.0,0.0,43,0.00,,,0.00,WUHU216HW,2013-09-17 02:13:00,
2013-09-16 21:18:00,89.4,63.8,29.98,NNE,23,0.0,0.0,43,0.00,,,0.00,WUHU216HW,2013-09-17 02:18:00,
2013-09-16 21:23:00,89.4,63.8,29.98,NNE,23,0.0,0.0,43,0.00,,,0.00,WUHU216HW,2013-09-17 02:23:00,
2013-09-16 21:28:00,89.6,64.0,29.98,NNE,23,0.0,0.0,43,0.00,,,0.00,WUHU216HW,2013-09-17 02:28:00,
2013-09-16 21:33:00,89.4,63.8,29.98,NNE,23,0.0,0.0,43,0.00,,,0.00,WUHU216HW,2013-09-17 02:33:00,
2013-09-16 21:38:00,89.4,63.8,29.98,NNE,23,0.0,0.0,43,0.00,,,0.00,WUHU216HW,2013-09-17 02:38:00,
2013-09-16 21:43:00,89.4,63.8,29.99,NNE,23,0.0,0.0,43,0.00,,,0.00,WUHU216HW,2013-09-17 02:43:00,
2013-09-16 21:48:00,89.4,63.8,29.99,NNE,23,0.0,0.0,43,0.00,,,0.00,WUHU216HW,2013-09-17 02:48:00,
2013-09-16 21:53:00,89.4,63.8,29.99,NNE,23,0.0,0.0,43,0.00,,,0.00,WUHU216HW,2013-09-17 02:53:00,
2013-09-16 21:58:00,89.4,64.4,29.99,NNE,23,0.0,0.0,44,0.00,,,0.00,WUHU216HW,2013-09-17 02:58:00,
2013-09-16 22:03:00,89.2,64.3,29.99,NNE,23,0.0,0.0,44,0.00,,,0.00,WUHU216HW,2013-09-17 03:03:00,
2013-09-16 22:08:00,89.0,64.8,29.99,NNE,23,0.0,0.0,45,0.00,,,0.00,WUHU216HW,2013-09-17 03:08:00,
2013-09-16 22:13:00,88.8,65.3,29.99,NNE,23,0.0,0.0,46,0.00,,,0.00,WUHU216HW,2013-09-17 03:13:00,
2013-09-16 22:18:00,88.8,65.3,30.00,NNE,23,0.0,0.0,46,0.00,,,0.00,WUHU216HW,2013-09-17 03:18:00,
2013-09-16 22:23:00,88.5,65.6,29.99,NNE,23,0.0,0.0,47,0.00,,,0.00,WUHU216HW,2013-09-17 03:23:00,
2013-09-16 22:28:00,88.5,65.6,30.00,NNE,23,0.0,0.0,47,0.00,,,0.00,WUHU216HW,2013-09-17 03:28:00,
2013-09-16 22:33:00,88.3,65.4,30.00,NNE,23,0.0,0.0,47,0.00,,,0.00,WUHU216HW,2013-09-17 03:33:00,
2013-09-16 22:38:00,88.3,66.1,30.00,NNE,23,0.0,0.0,48,0.00,,,0.00,WUHU216HW,2013-09-17 03:38:00,
2013-09-16 22:43:00,88.1,66.5,30.00,NNE,23,0.0,0.0,49,0.00,,,0.00,WUHU216HW,2013-09-17 03:43:00,
2013-09-16 22:48:00,87.9,65.8,30.00,NNE,23,0.0,0.0,48,0.00,,,0.00,WUHU216HW,2013-09-17 03:48:00,
2013-09-16 22:53:00,87.9,65.8,30.00,NNE,23,0.0,0.0,48,0.00,,,0.00,WUHU216HW,2013-09-17 03:53:00,
2013-09-16 22:58:00,87.9,65.8,30.00,NNE,23,0.0,0.0,48,0.00,,,0.00,WUHU216HW,2013-09-17 03:58:00,
2013-09-16 23:01:00,87.9,65.8,30.00,NNE,23,0.0,0.0,48,0.00,,,0.00,WUHU216HW,2013-09-17 04:01:00,
2013-09-16 23:02:00,87.9,65.8,30.00,NNE,23,0.0,0.0,48,0.00,,,0.00,WUHU216HW,2013-09-17 04:02:00,
2013-09-16 23:07:00,87.9,65.8,30.00,NNE,23,0.0,0.0,48,0.00,,,0.00,WUHU216HW,2013-09-17 04:07:00,
2013-09-16 23:12:00,87.9,65.8,30.00,NNE,23,0.0,0.0,48,0.00,,,0.00,WUHU216HW,2013-09-17 04:12:00,
2013-09-16 23:17:00,87.9,65.8,29.99,NNE,23,0.0,0.0,48,0.00,,,0.00,WUHU216HW,2013-09-17 04:17:00,
2013-09-16 23:22:00,87.6,66.1,29.99,NNE,23,0.0,0.0,49,0.00,,,0.00,WUHU216HW,2013-09-17 04:22:00,
2013-09-16 23:27:00,87.6,66.1,30.00,NNE,23,0.0,0.0,49,0.00,,,0.00,WUHU216HW,2013-09-17 04:27:00,
2013-09-16 23:32:00,87.6,66.1,30.00,NNE,23,0.0,0.0,49,0.00,,,0.00,WUHU216HW,2013-09-17 04:32:00,
2013-09-16 23:37:00,87.6,66.1,30.00,NNE,23,0.0,0.0,49,0.00,,,0.00,WUHU216HW,2013-09-17 04:37:00,
2013-09-16 23:42:00,87.6,66.1,30.00,NNE,23,0.0,0.0,49,0.00,,,0.00,WUHU216HW,2013-09-17 04:42:00,
2013-09-16 23:47:00,87.4,65.9,30.00,NNE,23,0.0,0.0,49,0.00,,,0.00,WUHU216HW,2013-09-17 04:47:00,
2013-09-16 23:52:00,87.4,65.9,30.00,NNE,23,0.0,0.0,49,0.00,,,0.00,WUHU216HW,2013-09-17 04:52:00,
2013-09-16 23:57:00,87.2,65.8,30.00,NNE,23,0.0,0.0,49,0.00,,,0.00,WUHU216HW,2013-09-17 04:57:00,